Location: Gleizolles
(44.4833°N, 6.7667°E)
Time: 22:21:18
(UTC+00:00)

Altair - All Passes

Search period start: 25 June 2024 00:00
Search period end: 05 July 2024 00:00
Orbit: 1502 x 1682 km, 47.2° (Epoch: 25 June)

Date Brightness Start Highest point End Pass type
(mag) Time Alt. Az. Time Alt. Az. Time Alt. Az.
25 Jun - 00:06:42 10° SW 00:15:32 55° SE 00:24:35 10° ENE visible
25 Jun - 02:10:42 10° WSW 02:19:59 82° NNW 02:29:37 10° ENE visible
25 Jun - 04:15:49 10° WNW 04:25:14 80° N 04:35:03 10° E daylight
25 Jun - 06:20:37 10° WNW 06:29:57 61° SSW 06:39:37 10° SE daylight
25 Jun - 08:26:40 10° W 08:33:21 21° SW 08:40:10 10° S daylight
25 Jun - 21:43:03 10° SSE 21:47:30 15° SE 21:51:59 10° E visible
25 Jun - 23:41:40 10° SW 23:50:24 51° SE 23:59:19 10° ENE visible
26 Jun - 01:45:29 10° WSW 01:54:45 84° NNW 02:04:21 10° ENE visible
26 Jun - 03:50:35 10° WNW 03:59:59 79° N 04:09:45 10° E daylight
26 Jun - 05:55:25 10° WNW 06:04:46 65° SSW 06:14:28 10° SE daylight
26 Jun - 08:01:12 10° W 08:08:15 23° SW 08:15:30 10° S daylight
26 Jun - 21:18:57 10° SE 21:22:29 13° ESE 21:26:01 10° E visible
26 Jun - 23:16:39 10° SSW 23:25:17 48° SE 23:34:03 10° ENE visible
27 Jun - 01:20:17 10° WSW 01:29:32 87° NNW 01:39:05 10° ENE visible
27 Jun - 03:25:22 10° W 03:34:44 78° N 03:44:27 10° E daylight
27 Jun - 05:30:12 10° WNW 05:39:34 68° SSW 05:49:18 10° SE daylight
27 Jun - 07:35:47 10° W 07:43:10 26° SW 07:50:45 10° S daylight
27 Jun - 20:55:22 10° SE 20:57:28 11° ESE 20:59:35 10° ESE visible
27 Jun - 22:51:41 10° SSW 23:00:10 44° SE 23:08:47 10° ENE visible
28 Jun - 00:55:05 10° WSW 01:04:19 89° NNW 01:13:49 10° ENE visible
28 Jun - 03:00:09 10° W 03:09:29 77° N 03:19:09 10° E visible
28 Jun - 05:05:01 10° WNW 05:14:23 72° SSW 05:24:07 10° SE daylight
28 Jun - 07:10:24 10° WNW 07:18:04 28° SW 07:25:56 10° S daylight
28 Jun - 22:26:43 10° SSW 22:35:04 41° SE 22:43:30 10° ENE visible
29 Jun - 00:29:53 10° WSW 00:39:07 88° SSE 00:48:35 10° ENE visible
29 Jun - 02:34:56 10° W 02:44:14 76° N 02:53:52 10° E visible
29 Jun - 04:39:48 10° WNW 04:49:11 75° SSW 04:58:55 10° SE daylight
29 Jun - 06:45:04 10° WNW 06:52:58 30° SW 07:01:06 10° S daylight
29 Jun - 22:01:47 10° SSW 22:09:58 38° SE 22:18:13 10° ENE visible
30 Jun - 00:04:42 10° WSW 00:13:54 85° SSE 00:23:20 10° ENE visible
30 Jun - 02:09:42 10° W 02:18:59 76° N 02:28:35 10° E visible
30 Jun - 04:14:36 10° WNW 04:23:59 78° SSW 04:33:42 10° ESE daylight
30 Jun - 06:19:45 10° WNW 06:27:51 33° SW 06:36:13 10° SSE daylight
30 Jun - 21:36:53 10° SSW 21:44:52 35° SE 21:52:55 10° ENE visible
30 Jun - 23:39:32 10° WSW 23:48:43 82° SSE 23:58:06 10° ENE visible
01 Jul - 01:44:28 10° W 01:53:43 75° N 02:03:17 10° E visible
01 Jul - 03:49:25 10° WNW 03:58:46 82° SSW 04:08:30 10° ESE daylight
01 Jul - 05:54:27 10° WNW 06:02:44 36° SW 06:11:18 10° SSE daylight
01 Jul - 21:12:01 10° SSW 21:19:47 32° SE 21:27:36 10° ENE visible
01 Jul - 23:14:22 10° WSW 23:23:31 79° SSE 23:32:51 10° ENE visible
02 Jul - 01:19:14 10° W 01:28:29 75° N 01:38:00 10° E visible
02 Jul - 03:24:13 10° WNW 03:33:34 85° SSW 03:43:16 10° ESE daylight
02 Jul - 05:29:10 10° WNW 05:37:37 38° SW 05:46:21 10° SSE daylight
02 Jul - 20:47:10 10° S 20:54:43 30° SE 21:02:16 10° ENE visible
02 Jul - 22:49:12 10° SW 22:58:21 76° SSE 23:07:37 10° ENE visible
03 Jul - 00:54:00 10° W 01:03:14 76° N 01:12:43 10° E visible
03 Jul - 02:59:00 10° WNW 03:08:21 87° SSW 03:18:01 10° ESE visible
03 Jul - 05:03:54 10° WNW 05:12:29 41° SW 05:21:22 10° SSE daylight
03 Jul - 20:22:22 10° S 20:29:39 27° SE 20:36:54 10° ENE visible
03 Jul - 22:24:04 10° SW 22:33:10 72° SSE 22:42:24 10° ENE visible
04 Jul - 00:28:47 10° W 00:37:59 76° N 00:47:27 10° E visible
04 Jul - 02:33:49 10° WNW 02:43:08 90° NNE 02:52:46 10° ESE visible
04 Jul - 04:38:39 10° WNW 04:47:22 44° SW 04:56:21 10° SSE daylight
04 Jul - 06:47:30 10° WSW 06:50:14 11° WSW 06:52:59 10° SW daylight
04 Jul - 19:57:37 10° S 20:04:35 25° SE 20:11:31 10° E visible
04 Jul - 21:58:56 10° SW 22:08:00 68° SSE 22:17:10 10° ENE visible
